When you browse on this site, cookies collect data to enhance your experience and personalize the content and advertising you see.
Visit our Privacy Policy to learn more. By continuing to use the site, you agree to this use of cookies and data.
  • In Latvia
  • List of Countries
  • For 7 days
  • Water Temperature
  • Weather Map
  • Weather Widgets
  • user-avatar
    Login

    Hourly Weather Jurmala

    Today, 25 May, Monday

    Time Temperature Precipitation Wind Pressure Humidity
    00:00 +7°C° 0 mm 2 mps 763 mmHg 94%
    01:00 +7°C° 0 mm 2 mps 763 mmHg 94%
    02:00 +6°C° 0 mm 2 mps 763 mmHg 94%
    03:00 +6°C° 0 mm 2 mps 764 mmHg 94%
    04:00 +6°C° 0 mm 2 mps 764 mmHg 93%
    05:00 +7°C° 0 mm 1 mps 764 mmHg 93%
    06:00 +9°C° 0 mm 1 mps 764 mmHg 87%
    07:00 +11°C° 0 mm 1 mps 765 mmHg 81%
    08:00 +13°C° 0 mm 1 mps 765 mmHg 76%
    09:00 +13°C° 0 mm 1 mps 765 mmHg 72%
    10:00 +14°C° 0 mm 2 mps 766 mmHg 68%
    11:00 +15°C° 0 mm 2 mps 766 mmHg 64%
    12:00 +14°C° 0 mm 3 mps 766 mmHg 64%
    13:00 +14°C° 0 mm 4 mps 766 mmHg 63%
    14:00 +14°C° 0 mm 4 mps 766 mmHg 62%
    15:00 +14°C° 0 mm 4 mps 766 mmHg 64%
    16:00 +14°C° 0 mm 4 mps 767 mmHg 65%
    17:00 +13°C° 0 mm 4 mps 767 mmHg 67%
    18:00 +12°C° 0 mm 4 mps 767 mmHg 72%
    19:00 +11°C° 0 mm 3 mps 768 mmHg 77%
    20:00 +11°C° 0 mm 3 mps 768 mmHg 82%
    21:00 +10°C° 0 mm 3 mps 769 mmHg 85%
    22:00 +9°C° 0 mm 3 mps 769 mmHg 87%
    23:00 +9°C° 0 mm 3 mps 770 mmHg 89%

    Tomorrow, 26 May, Tuesday

    Time Temperature Precipitation Wind Pressure Humidity
    00:00 +9°C° 0 mm 3 mps 770 mmHg 89%
    01:00 +9°C° 0 mm 3 mps 770 mmHg 89%
    02:00 +9°C° 0 mm 3 mps 771 mmHg 90%
    03:00 +8°C° 0 mm 3 mps 771 mmHg 86%
    04:00 +8°C° 0 mm 3 mps 771 mmHg 82%
    05:00 +8°C° 0 mm 2 mps 771 mmHg 79%
    06:00 +10°C° 0 mm 3 mps 772 mmHg 71%
    07:00 +11°C° 0 mm 3 mps 772 mmHg 63%
    08:00 +12°C° 0 mm 3 mps 772 mmHg 56%
    09:00 +14°C° 0 mm 3 mps 772 mmHg 52%
    10:00 +16°C° 0 mm 3 mps 772 mmHg 48%
    11:00 +17°C° 0 mm 4 mps 773 mmHg 44%
    12:00 +17°C° 0 mm 4 mps 772 mmHg 46%
    13:00 +17°C° 0 mm 4 mps 772 mmHg 47%
    14:00 +18°C° 0 mm 4 mps 772 mmHg 48%
    15:00 +17°C° 0 mm 4 mps 772 mmHg 49%
    16:00 +17°C° 0 mm 4 mps 772 mmHg 49%
    17:00 +17°C° 0 mm 4 mps 772 mmHg 49%
    18:00 +14°C° 0 mm 4 mps 772 mmHg 57%
    19:00 +13°C° 0 mm 3 mps 772 mmHg 64%
    20:00 +12°C° 0 mm 3 mps 772 mmHg 71%
    21:00 +11°C° 0 mm 3 mps 772 mmHg 73%
    22:00 +10°C° 0 mm 3 mps 772 mmHg 76%
    23:00 +9°C° 0 mm 2 mps 772 mmHg 79%

    Day after tomorrow, 27 May, Wednesday

    Time Temperature Precipitation Wind Pressure Humidity
    00:00 +9°C° 0 mm 2 mps 772 mmHg 80%
    01:00 +8°C° 0 mm 2 mps 772 mmHg 82%
    02:00 +8°C° 0 mm 2 mps 771 mmHg 83%
    03:00 +8°C° 0 mm 2 mps 771 mmHg 83%
    04:00 +8°C° 0 mm 2 mps 771 mmHg 83%
    05:00 +8°C° 0 mm 2 mps 770 mmHg 83%
    06:00 +10°C° 0 mm 2 mps 770 mmHg 77%
    07:00 +12°C° 0 mm 2 mps 770 mmHg 71%
    08:00 +14°C° 0 mm 2 mps 770 mmHg 64%
    09:00 +16°C° 0 mm 2 mps 770 mmHg 60%
    10:00 +17°C° 0 mm 2 mps 769 mmHg 55%
    11:00 +18°C° 0 mm 2 mps 769 mmHg 51%
    12:00 +19°C° 0 mm 2 mps 768 mmHg 48%
    13:00 +19°C° 0 mm 2 mps 768 mmHg 46%
    14:00 +21°C° 0 mm 1 mps 768 mmHg 43%
    15:00 +21°C° 0 mm 1 mps 767 mmHg 45%
    16:00 +20°C° 0 mm 1 mps 767 mmHg 46%
    17:00 +20°C° 0 mm 1 mps 766 mmHg 47%
    18:00 +18°C° 0 mm 2 mps 766 mmHg 55%
    19:00 +16°C° 0 mm 2 mps 766 mmHg 63%
    20:00 +15°C° 0 mm 2 mps 766 mmHg 71%
    21:00 +14°C° 0 mm 2 mps 765 mmHg 76%
    22:00 +13°C° 0 mm 2 mps 765 mmHg 81%
    23:00 +10°C° 0 mm 2 mps 765 mmHg 85%

    28 May, Thursday

    Time Temperature Precipitation Wind Pressure Humidity
    00:00 +11°C° 0 mm 1 mps 765 mmHg 88%
    01:00 +10°C° 0 mm 1 mps 764 mmHg 90%
    02:00 +10°C° 0 mm 1 mps 764 mmHg 92%
    03:00 +10°C° 0 mm 1 mps 764 mmHg 92%
    04:00 +10°C° 0 mm 1 mps 764 mmHg 92%
    05:00 +9°C° 0 mm 2 mps 763 mmHg 92%
    06:00 +10°C° 0 mm 2 mps 763 mmHg 89%
    07:00 +12°C° 0 mm 2 mps 764 mmHg 87%
    08:00 +13°C° 0 mm 2 mps 764 mmHg 84%
    09:00 +11°C° 0.2 mm 3 mps 763 mmHg 86%
    10:00 +11°C° 0.2 mm 4 mps 763 mmHg 88%
    11:00 +9°C° 0.2 mm 5 mps 763 mmHg 90%
    12:00 +10°C° 0.1 mm 5 mps 763 mmHg 85%
    13:00 +10°C° 0.1 mm 5 mps 763 mmHg 80%
    14:00 +12°C° 0.1 mm 5 mps 763 mmHg 75%
    15:00 +11°C° 0 mm 6 mps 763 mmHg 73%
    16:00 +11°C° 0 mm 6 mps 763 mmHg 71%
    17:00 +11°C° 0 mm 7 mps 763 mmHg 69%
    18:00 +10°C° 0 mm 6 mps 763 mmHg 71%
    19:00 +10°C° 0 mm 6 mps 763 mmHg 74%
    20:00 +9°C° 0 mm 6 mps 763 mmHg 76%
    21:00 +9°C° 0 mm 6 mps 763 mmHg 78%
    22:00 +9°C° 0 mm 6 mps 763 mmHg 80%
    23:00 +8°C° 0 mm 5 mps 763 mmHg 82%

    29 May, Friday

    Time Temperature Precipitation Wind Pressure Humidity
    00:00 +8°C° 0 mm 5 mps 763 mmHg 84%
    01:00 +8°C° 0 mm 5 mps 763 mmHg 86%
    02:00 +8°C° 0 mm 5 mps 763 mmHg 88%
    03:00 +8°C° 0.3 mm 4 mps 763 mmHg 91%
    04:00 +8°C° 0.3 mm 4 mps 762 mmHg 93%
    05:00 +10°C° 0.3 mm 4 mps 762 mmHg 95%
    06:00 +10°C° 0.4 mm 4 mps 762 mmHg 93%
    07:00 +10°C° 0.4 mm 4 mps 762 mmHg 90%
    08:00 +10°C° 0.4 mm 5 mps 762 mmHg 88%
    09:00 +12°C° 0 mm 5 mps 762 mmHg 81%
    10:00 +14°C° 0 mm 5 mps 762 mmHg 75%
    11:00 +15°C° 0 mm 5 mps 761 mmHg 68%
    12:00 +16°C° 0.1 mm 6 mps 761 mmHg 66%
    13:00 +16°C° 0.1 mm 6 mps 761 mmHg 63%
    14:00 +17°C° 0.1 mm 6 mps 761 mmHg 60%
    15:00 +17°C° 0 mm 6 mps 760 mmHg 58%
    16:00 +17°C° 0 mm 6 mps 760 mmHg 56%
    17:00 +17°C° 0 mm 7 mps 760 mmHg 55%
    18:00 +16°C° 0.1 mm 6 mps 760 mmHg 61%
    19:00 +15°C° 0.1 mm 5 mps 761 mmHg 68%
    20:00 +14°C° 0.1 mm 5 mps 761 mmHg 75%
    21:00 +13°C° 0.2 mm 4 mps 761 mmHg 79%
    22:00 +13°C° 0.2 mm 3 mps 761 mmHg 84%
    23:00 +13°C° 0.2 mm 3 mps 761 mmHg 89%

    30 May, Saturday

    Time Temperature Precipitation Wind Pressure Humidity
    00:00 +12°C° 0 mm 3 mps 761 mmHg 88%
    01:00 +12°C° 0 mm 3 mps 761 mmHg 88%
    02:00 +12°C° 0 mm 3 mps 762 mmHg 88%
    03:00 +12°C° 0 mm 3 mps 762 mmHg 88%
    04:00 +12°C° 0 mm 3 mps 762 mmHg 87%
    05:00 +13°C° 0 mm 2 mps 762 mmHg 87%
    06:00 +13°C° 0 mm 2 mps 762 mmHg 83%
    07:00 +13°C° 0 mm 3 mps 762 mmHg 79%
    08:00 +14°C° 0 mm 3 mps 762 mmHg 76%
    09:00 +16°C° 0 mm 3 mps 762 mmHg 72%
    10:00 +16°C° 0 mm 3 mps 762 mmHg 68%
    11:00 +17°C° 0 mm 4 mps 762 mmHg 64%
    12:00 +18°C° 0.1 mm 4 mps 762 mmHg 62%
    13:00 +17°C° 0.1 mm 5 mps 762 mmHg 60%
    14:00 +19°C° 0.1 mm 5 mps 761 mmHg 58%
    15:00 +19°C° 0.1 mm 5 mps 762 mmHg 60%
    16:00 +17°C° 0.1 mm 5 mps 762 mmHg 63%
    17:00 +18°C° 0.1 mm 4 mps 762 mmHg 65%
    18:00 +17°C° 0.1 mm 4 mps 762 mmHg 71%
    19:00 +15°C° 0.1 mm 4 mps 762 mmHg 77%
    20:00 +14°C° 0.1 mm 4 mps 761 mmHg 84%
    21:00 +13°C° 0 mm 3 mps 762 mmHg 87%
    22:00 +12°C° 0 mm 3 mps 762 mmHg 91%
    23:00 +11°C° 0 mm 3 mps 762 mmHg 95%
    Show more